Snow/Ice From: 16-12-2017 16:00 Until: 17-12-2017 16:00 warning for: Snow/Ice Level: Yellow info button

Although rather usual in this region, locally or potentially dangerous phenomena are expected. (such as local winds, summer thunderstorms, rising streams or high waves) Be aware and pay attention to the latest weather updates, especially if you carry out activities exposed to weather or close to a stream or shoreline. 


Meteo18 Weather Cam more information Meteo18 Weather Cam


Thunder radar more information blitzortung!


warning for Snow/Ice more information rain snow radar


Visit our other weather sites:

Template documentation
and downloads

And another site



Weather Underground History page Text

Daily Summary for January 14, 2017 Units:  Metric    English   Both
« Previous Day
Next Day »
Daily Weekly Monthly Yearly Custom
  High: Low: Average:
Temperature: 3.8 °C 0.6 °C 2.1 °C
Dew Point: 1.5 °C -1.2 °C 0.2 °C
Humidity: 96 % 75 % 87 %
Wind Speed: 20.9 km/h 0.0 km/h 8 km/h
Wind Gust: 30.6 km/h - -
Wind:- - West
Pressure: 1022.9 hPa 1017.5 hPa -
Precipitation: 2.3 mm    
Historical Graphs
 
 
Tabular Data for January 14, 2017
Time Temperature Dew Point Pressure Wind Wind Speed Wind Gust Humidity Rainfall Rate (Hourly)
00:02 3.2 °C 0.1 °C 1017.5 hPa WNW 4.8 km/h 17.7 km/h 80 % 0.0 mm
00:07 3.2 °C 0.1 °C 1017.5 hPa NW 3.2 km/h 17.7 km/h 80 % 0.0 mm
00:12 3.2 °C 0.1 °C 1017.5 hPa WSW 4.8 km/h 17.7 km/h 80 % 0.0 mm
00:17 3.2 °C 0.1 °C 1017.5 hPa West 8.0 km/h 17.7 km/h 80 % 0.0 mm
00:22 3.2 °C 0.1 °C 1017.5 hPa West 9.7 km/h 16.1 km/h 80 % 0.0 mm
00:27 3.1 °C 0.2 °C 1017.5 hPa SW 4.8 km/h 17.7 km/h 81 % 0.0 mm
00:32 3.1 °C 0.2 °C 1017.5 hPa WNW 4.8 km/h 17.7 km/h 81 % 0.0 mm
00:37 3.1 °C 0.2 °C 1017.5 hPa WSW 4.8 km/h 16.1 km/h 81 % 0.0 mm
00:42 3.1 °C 0.2 °C 1017.8 hPa NW 4.8 km/h 19.3 km/h 81 % 0.0 mm
00:52 3.0 °C 0.2 °C 1017.8 hPa West 6.4 km/h 14.5 km/h 82 % 0.0 mm
00:57 2.9 °C 0.1 °C 1017.5 hPa West 8.0 km/h 17.7 km/h 82 % 0.0 mm
01:02 3.0 °C 0.1 °C 1017.5 hPa NW 12.9 km/h 22.5 km/h 81 % 0.0 mm
01:07 3.1 °C 0.2 °C 1017.8 hPa WSW 19.3 km/h 27.4 km/h 81 % 0.0 mm
01:12 3.1 °C 0.2 °C 1017.8 hPa WNW 17.7 km/h 27.4 km/h 81 % 0.0 mm
01:17 2.9 °C 0.0 °C 1017.8 hPa West 4.8 km/h 27.4 km/h 81 % 0.0 mm
01:22 2.9 °C 0.0 °C 1017.8 hPa WNW 11.3 km/h 25.7 km/h 81 % 0.0 mm
01:32 2.9 °C 0.1 °C 1017.8 hPa WNW 11.3 km/h 22.5 km/h 82 % 0.0 mm
01:37 2.8 °C 0.0 °C 1017.8 hPa NW 20.9 km/h 24.1 km/h 82 % 0.0 mm
01:42 2.8 °C 0.0 °C 1017.8 hPa West 14.5 km/h 24.1 km/h 82 % 0.0 mm
01:47 2.8 °C 0.0 °C 1017.8 hPa WNW 11.3 km/h 24.1 km/h 82 % 0.0 mm
01:52 2.8 °C 0.0 °C 1017.8 hPa NW 9.7 km/h 20.9 km/h 82 % 0.0 mm
01:57 2.8 °C 0.0 °C 1017.8 hPa WSW 11.3 km/h 24.1 km/h 82 % 0.0 mm
02:02 2.7 °C -0.1 °C 1017.8 hPa WNW 12.9 km/h 24.1 km/h 82 % 0.0 mm
02:07 2.7 °C -0.1 °C 1017.8 hPa WNW 12.9 km/h 24.1 km/h 82 % 0.0 mm
02:12 2.7 °C -0.1 °C 1017.8 hPa West 6.4 km/h 24.1 km/h 82 % 0.0 mm
02:17 2.6 °C -0.2 °C 1017.8 hPa WSW 9.7 km/h 24.1 km/h 82 % 0.0 mm
02:22 2.6 °C -0.2 °C 1017.8 hPa WNW 9.7 km/h 20.9 km/h 82 % 0.0 mm
02:27 2.6 °C -0.2 °C 1017.8 hPa West 17.7 km/h 20.9 km/h 82 % 0.0 mm
02:32 2.6 °C -0.2 °C 1017.8 hPa WNW 16.1 km/h 20.9 km/h 82 % 0.0 mm
02:37 2.6 °C -0.2 °C 1017.8 hPa West 11.3 km/h 20.9 km/h 82 % 0.0 mm
02:42 2.6 °C 0.0 °C 1017.8 hPa NW 12.9 km/h 20.9 km/h 83 % 0.0 mm
02:47 2.6 °C 0.0 °C 1017.8 hPa WNW 9.7 km/h 22.5 km/h 83 % 0.0 mm
02:52 2.5 °C -0.1 °C 1017.8 hPa WNW 9.7 km/h 22.5 km/h 83 % 0.0 mm
03:02 2.4 °C -0.2 °C 1017.8 hPa SW 11.3 km/h 29.0 km/h 83 % 0.0 mm
03:07 2.4 °C -0.2 °C 1017.8 hPa WNW 6.4 km/h 29.0 km/h 83 % 0.0 mm
03:12 2.4 °C -0.2 °C 1018.2 hPa WNW 9.7 km/h 30.6 km/h 83 % 0.0 mm
03:17 2.4 °C 0.0 °C 1018.2 hPa West 11.3 km/h 30.6 km/h 84 % 0.0 mm
03:22 2.3 °C -0.1 °C 1018.2 hPa WNW 19.3 km/h 30.6 km/h 84 % 0.0 mm
03:27 2.1 °C 0.2 °C 1018.2 hPa West 8.0 km/h 29.0 km/h 87 % 0.0 mm
03:32 1.7 °C 0.1 °C 1018.5 hPa North 9.7 km/h 29.0 km/h 89 % 0.0 mm
03:37 1.3 °C 0.0 °C 1018.5 hPa NW 8.0 km/h 25.7 km/h 91 % 0.0 mm
03:42 1.1 °C 0.1 °C 1018.5 hPa WNW 9.7 km/h 25.7 km/h 93 % 0.0 mm
03:47 1.1 °C 0.1 °C 1018.5 hPa West 4.8 km/h 19.3 km/h 93 % 0.3 mm
03:52 1.1 °C 0.1 °C 1018.5 hPa West 3.2 km/h 19.3 km/h 93 % 0.3 mm
03:57 1.0 °C 0.1 °C 1018.5 hPa WNW 6.4 km/h 19.3 km/h 94 % 0.3 mm
04:02 1.1 °C 0.2 °C 1018.8 hPa WNW 11.3 km/h 19.3 km/h 94 % 0.3 mm
04:07 1.2 °C 0.2 °C 1018.5 hPa West 4.8 km/h 17.7 km/h 93 % 0.5 mm
04:12 1.2 °C 0.2 °C 1018.5 hPa West 8.0 km/h 17.7 km/h 93 % 0.5 mm
04:17 1.3 °C 0.3 °C 1018.8 hPa NW 3.2 km/h 25.7 km/h 93 % 0.5 mm
04:22 1.3 °C 0.1 °C 1018.8 hPa WNW 6.4 km/h 25.7 km/h 92 % 0.5 mm
04:27 1.5 °C 0.2 °C 1018.5 hPa West 16.1 km/h 27.4 km/h 91 % 0.5 mm
04:32 1.5 °C 0.2 °C 1018.8 hPa WNW 9.7 km/h 27.4 km/h 91 % 0.5 mm
04:37 1.4 °C 0.1 °C 1018.8 hPa NW 9.7 km/h 27.4 km/h 91 % 0.5 mm
04:42 1.4 °C 0.1 °C 1018.8 hPa WNW 9.7 km/h 22.5 km/h 91 % 0.5 mm
04:47 1.3 °C 0.0 °C 1018.8 hPa WNW 11.3 km/h 19.3 km/h 91 % 0.3 mm
04:52 1.3 °C 0.0 °C 1018.8 hPa North 14.5 km/h 19.3 km/h 91 % 0.3 mm
04:57 1.3 °C 0.0 °C 1018.8 hPa WNW 1.6 km/h 17.7 km/h 91 % 0.3 mm
05:02 1.2 °C -0.1 °C 1018.8 hPa NW 12.9 km/h 16.1 km/h 91 % 0.3 mm
05:07 1.2 °C -0.1 °C 1018.8 hPa WNW 8.0 km/h 17.7 km/h 91 % 0.0 mm
05:12 1.2 °C -0.1 °C 1018.8 hPa NW 9.7 km/h 19.3 km/h 91 % 0.0 mm
05:17 1.2 °C -0.1 °C 1018.8 hPa WNW 12.9 km/h 19.3 km/h 91 % 0.0 mm
05:22 1.2 °C -0.1 °C 1018.8 hPa NNW 16.1 km/h 20.9 km/h 91 % 0.0 mm
05:27 1.2 °C -0.1 °C 1019.2 hPa WNW 12.9 km/h 20.9 km/h 91 % 0.0 mm
05:32 1.2 °C -0.1 °C 1019.2 hPa NNW 4.8 km/h 22.5 km/h 91 % 0.0 mm
05:37 1.2 °C -0.1 °C 1019.2 hPa WNW 8.0 km/h 27.4 km/h 91 % 0.0 mm
05:42 1.2 °C -0.1 °C 1019.2 hPa WNW 12.9 km/h 27.4 km/h 91 % 0.0 mm
05:52 1.3 °C 0.0 °C 1019.2 hPa NW 8.0 km/h 27.4 km/h 91 % 0.0 mm
05:57 1.3 °C -0.2 °C 1019.5 hPa NW 17.7 km/h 27.4 km/h 90 % 0.0 mm
06:02 1.3 °C -0.2 °C 1019.5 hPa WNW 9.7 km/h 29.0 km/h 90 % 0.0 mm
06:12 1.3 °C -0.2 °C 1019.9 hPa WNW 12.9 km/h 29.0 km/h 90 % 0.0 mm
06:17 1.3 °C -0.2 °C 1019.9 hPa NW 8.0 km/h 20.9 km/h 90 % 0.0 mm
06:22 1.3 °C -0.2 °C 1019.9 hPa NW 11.3 km/h 20.9 km/h 90 % 0.0 mm
06:27 1.3 °C -0.3 °C 1019.9 hPa West 11.3 km/h 20.9 km/h 89 % 0.0 mm
06:32 1.3 °C -0.2 °C 1019.9 hPa WNW 8.0 km/h 20.9 km/h 90 % 0.0 mm
06:37 1.2 °C -0.3 °C 1019.9 hPa NW 20.9 km/h 20.9 km/h 90 % 0.0 mm
06:42 1.2 °C -0.3 °C 1019.9 hPa WNW 9.7 km/h 20.9 km/h 90 % 0.0 mm
06:52 1.2 °C -0.4 °C 1019.9 hPa West 20.9 km/h 22.5 km/h 89 % 0.0 mm
06:57 1.3 °C -0.3 °C 1019.9 hPa WNW 12.9 km/h 29.0 km/h 89 % 0.0 mm
07:02 1.2 °C -0.4 °C 1020.2 hPa WNW 12.9 km/h 29.0 km/h 89 % 0.0 mm
07:12 1.2 °C -0.4 °C 1020.2 hPa WNW 9.7 km/h 29.0 km/h 89 % 0.0 mm
07:17 1.2 °C -0.4 °C 1020.2 hPa WNW 16.1 km/h 20.9 km/h 89 % 0.0 mm
07:22 1.1 °C -0.5 °C 1020.2 hPa NW 17.7 km/h 22.5 km/h 89 % 0.0 mm
07:27 1.1 °C -0.5 °C 1020.2 hPa NW 12.9 km/h 22.5 km/h 89 % 0.0 mm
07:32 1.1 °C -0.5 °C 1020.2 hPa WNW 11.3 km/h 22.5 km/h 89 % 0.0 mm
07:37 1.0 °C -0.6 °C 1020.2 hPa NW 12.9 km/h 25.7 km/h 89 % 0.0 mm
07:42 1.0 °C -0.6 °C 1020.5 hPa North 8.0 km/h 25.7 km/h 89 % 0.0 mm
07:47 1.0 °C -0.6 °C 1020.5 hPa NNW 12.9 km/h 25.7 km/h 89 % 0.0 mm
07:57 0.9 °C -0.7 °C 1020.5 hPa WNW 16.1 km/h 27.4 km/h 89 % 0.0 mm
08:02 0.9 °C -0.7 °C 1020.5 hPa WNW 8.0 km/h 27.4 km/h 89 % 0.0 mm
08:07 0.8 °C -0.8 °C 1020.9 hPa WNW 6.4 km/h 24.1 km/h 89 % 0.0 mm
08:12 0.8 °C -0.8 °C 1020.9 hPa NW 16.1 km/h 24.1 km/h 89 % 0.0 mm
08:17 0.8 °C -0.8 °C 1020.9 hPa WNW 19.3 km/h 19.3 km/h 89 % 0.0 mm
08:22 0.8 °C -0.8 °C 1020.9 hPa NW 4.8 km/h 19.3 km/h 89 % 0.0 mm
08:27 0.7 °C -1.1 °C 1020.9 hPa NNW 6.4 km/h 19.3 km/h 88 % 0.0 mm
08:32 0.7 °C -1.1 °C 1021.2 hPa NW 9.7 km/h 19.3 km/h 88 % 0.0 mm
08:37 0.7 °C -0.9 °C 1021.2 hPa WNW 9.7 km/h 19.3 km/h 89 % 0.0 mm
08:42 0.7 °C -1.1 °C 1021.2 hPa WNW 6.4 km/h 19.3 km/h 88 % 0.0 mm
08:52 0.6 °C -1.0 °C 1021.6 hPa NW 4.8 km/h 16.1 km/h 89 % 0.0 mm
08:57 0.6 °C -1.0 °C 1021.6 hPa NW 9.7 km/h 16.1 km/h 89 % 0.0 mm
09:02 0.6 °C -1.2 °C 1021.6 hPa WNW 1.6 km/h 16.1 km/h 88 % 0.0 mm
09:12 0.6 °C -1.0 °C 1021.9 hPa West 4.8 km/h 14.5 km/h 89 % 0.0 mm
09:17 0.6 °C -1.0 °C 1021.9 hPa NW 8.0 km/h 14.5 km/h 89 % 0.0 mm
09:22 0.6 °C -1.0 °C 1021.9 hPa NW 4.8 km/h 11.3 km/h 89 % 0.0 mm
09:27 0.7 °C -0.9 °C 1021.9 hPa West 1.6 km/h 9.7 km/h 89 % 0.0 mm
09:32 0.7 °C -0.9 °C 1021.9 hPa WNW 1.6 km/h 9.7 km/h 89 % 0.0 mm
09:37 0.7 °C -0.9 °C 1021.9 hPa SW 1.6 km/h 11.3 km/h 89 % 0.0 mm
09:42 0.8 °C -1.0 °C 1022.2 hPa SW 6.4 km/h 11.3 km/h 88 % 0.0 mm
09:47 0.8 °C -1.0 °C 1022.2 hPa WSW 1.6 km/h 14.5 km/h 88 % 0.0 mm
09:52 0.9 °C -0.9 °C 1022.2 hPa NW 9.7 km/h 14.5 km/h 88 % 0.0 mm
09:57 0.9 °C -0.9 °C 1022.2 hPa WNW 12.9 km/h 14.5 km/h 88 % 0.0 mm
10:02 0.9 °C -1.0 °C 1022.2 hPa WNW 4.8 km/h 16.1 km/h 87 % 0.0 mm
10:12 1.1 °C -0.8 °C 1022.2 hPa WNW 3.2 km/h 16.1 km/h 87 % 0.0 mm
10:17 1.2 °C -0.9 °C 1022.2 hPa WNW 14.5 km/h 16.1 km/h 86 % 0.0 mm
10:22 1.3 °C -0.8 °C 1022.2 hPa WNW 11.3 km/h 17.7 km/h 86 % 0.0 mm
10:32 1.5 °C -0.7 °C 1022.2 hPa NW 4.8 km/h 17.7 km/h 85 % 0.0 mm
10:37 1.6 °C -0.8 °C 1022.2 hPa WNW 9.7 km/h 14.5 km/h 84 % 0.0 mm
10:42 1.7 °C -0.7 °C 1022.2 hPa WNW 12.9 km/h 14.5 km/h 84 % 0.0 mm
10:47 1.8 °C -0.8 °C 1022.2 hPa WSW 4.8 km/h 17.7 km/h 83 % 0.0 mm
10:52 1.9 °C -0.8 °C 1022.2 hPa Calm   19.3 km/h 82 % 0.0 mm
10:57 2.0 °C -0.7 °C 1022.6 hPa WNW 3.2 km/h 19.3 km/h 82 % 0.0 mm
11:02 2.1 °C -0.7 °C 1022.6 hPa West 9.7 km/h 16.1 km/h 82 % 0.0 mm
11:07 2.1 °C -0.7 °C 1022.6 hPa WNW 11.3 km/h 17.7 km/h 82 % 0.0 mm
11:12 2.2 °C -0.6 °C 1022.6 hPa WNW 4.8 km/h 17.7 km/h 82 % 0.0 mm
11:17 2.2 °C -0.7 °C 1022.9 hPa NW 9.7 km/h 17.7 km/h 81 % 0.0 mm
11:22 2.3 °C -0.6 °C 1022.6 hPa NW 3.2 km/h 17.7 km/h 81 % 0.0 mm
11:27 2.4 °C -0.5 °C 1022.6 hPa WNW 11.3 km/h 17.7 km/h 81 % 0.0 mm
11:32 2.5 °C -0.6 °C 1022.9 hPa NW 6.4 km/h 17.7 km/h 80 % 0.0 mm
11:37 2.6 °C -0.5 °C 1022.9 hPa WNW 3.2 km/h 17.7 km/h 80 % 0.0 mm
11:42 2.8 °C -0.5 °C 1022.9 hPa WNW 9.7 km/h 17.7 km/h 79 % 0.0 mm
11:47 2.8 °C -0.7 °C 1022.9 hPa West 11.3 km/h 19.3 km/h 78 % 0.0 mm
11:52 2.9 °C -0.7 °C 1022.9 hPa NNW 9.7 km/h 20.9 km/h 77 % 0.0 mm
11:57 2.9 °C -0.7 °C 1022.9 hPa WNW 8.0 km/h 20.9 km/h 77 % 0.0 mm
12:02 2.9 °C -0.6 °C 1022.6 hPa WNW 16.1 km/h 25.7 km/h 78 % 0.0 mm
12:07 2.9 °C -0.4 °C 1022.6 hPa NNW 8.0 km/h 25.7 km/h 79 % 0.0 mm
12:12 2.9 °C -0.4 °C 1022.6 hPa WNW 11.3 km/h 25.7 km/h 79 % 0.0 mm
12:17 3.0 °C -0.5 °C 1022.6 hPa WNW 16.1 km/h 25.7 km/h 78 % 0.0 mm
12:22 2.9 °C -0.6 °C 1022.6 hPa West 16.1 km/h 20.9 km/h 78 % 0.0 mm
12:27 3.1 °C -0.4 °C 1022.6 hPa NW 9.7 km/h 22.5 km/h 78 % 0.0 mm
12:32 3.2 °C -0.1 °C 1022.6 hPa NW 8.0 km/h 22.5 km/h 79 % 0.0 mm
12:37 3.2 °C -0.6 °C 1022.6 hPa West 6.4 km/h 22.5 km/h 76 % 0.0 mm
12:42 3.3 °C -0.3 °C 1022.6 hPa WNW 12.9 km/h 20.9 km/h 77 % 0.0 mm
12:52 3.5 °C -0.3 °C 1022.6 hPa WNW 20.9 km/h 22.5 km/h 76 % 0.0 mm
12:57 3.4 °C -0.6 °C 1022.6 hPa West 8.0 km/h 24.1 km/h 75 % 0.0 mm
13:02 3.4 °C -0.6 °C 1022.2 hPa Calm   24.1 km/h 75 % 0.0 mm
13:07 3.8 °C 0.1 °C 1022.2 hPa West 1.6 km/h 24.1 km/h 77 % 0.0 mm
13:12 3.7 °C -0.1 °C 1022.2 hPa NW 6.4 km/h 22.5 km/h 76 % 0.0 mm
13:17 3.6 °C -0.1 °C 1022.2 hPa WNW 9.7 km/h 16.1 km/h 77 % 0.0 mm
13:22 3.5 °C -0.2 °C 1022.2 hPa West 9.7 km/h 17.7 km/h 77 % 0.0 mm
13:27 3.4 °C -0.4 °C 1022.2 hPa WNW 8.0 km/h 17.7 km/h 76 % 0.0 mm
13:32 3.3 °C -0.3 °C 1022.2 hPa WNW 16.1 km/h 17.7 km/h 77 % 0.0 mm
13:37 3.3 °C -0.3 °C 1022.2 hPa WSW 8.0 km/h 19.3 km/h 77 % 0.0 mm
13:42 3.3 °C -0.2 °C 1022.2 hPa WNW 12.9 km/h 19.3 km/h 78 % 0.0 mm
13:47 3.2 °C -0.4 °C 1022.2 hPa WNW 17.7 km/h 19.3 km/h 77 % 0.0 mm
13:52 3.1 °C -0.4 °C 1022.2 hPa West 9.7 km/h 20.9 km/h 78 % 0.0 mm
13:57 3.1 °C -0.2 °C 1022.2 hPa West 9.7 km/h 20.9 km/h 79 % 0.0 mm
14:02 3.0 °C -0.1 °C 1022.2 hPa WNW 4.8 km/h 20.9 km/h 80 % 0.0 mm
14:07 2.9 °C -0.2 °C 1021.9 hPa West 12.9 km/h 22.5 km/h 80 % 0.0 mm
14:12 2.9 °C 0.0 °C 1021.9 hPa WNW 12.9 km/h 22.5 km/h 81 % 0.0 mm
14:17 2.8 °C -0.1 °C 1021.9 hPa West 9.7 km/h 24.1 km/h 81 % 0.0 mm
14:22 2.8 °C -0.1 °C 1021.6 hPa West 11.3 km/h 24.1 km/h 81 % 0.0 mm
14:27 2.8 °C -0.1 °C 1021.9 hPa WSW 11.3 km/h 20.9 km/h 81 % 0.0 mm
14:32 2.9 °C 0.1 °C 1021.6 hPa West 16.1 km/h 20.9 km/h 82 % 0.0 mm
14:37 2.9 °C 0.1 °C 1021.9 hPa WNW 14.5 km/h 19.3 km/h 82 % 0.0 mm
14:42 2.9 °C 0.3 °C 1021.9 hPa WSW 8.0 km/h 17.7 km/h 83 % 0.0 mm
14:47 2.8 °C 0.0 °C 1021.6 hPa West 16.1 km/h 17.7 km/h 82 % 0.0 mm
14:52 2.8 °C 0.2 °C 1021.9 hPa West 9.7 km/h 20.9 km/h 83 % 0.0 mm
14:57 2.7 °C 0.3 °C 1021.9 hPa WNW 8.0 km/h 20.9 km/h 84 % 0.0 mm
15:02 2.7 °C 0.6 °C 1021.6 hPa West 6.4 km/h 17.7 km/h 86 % 0.0 mm
15:07 2.6 °C 0.5 °C 1021.6 hPa West 16.1 km/h 17.7 km/h 86 % 0.0 mm
15:12 2.4 °C 0.3 °C 1021.6 hPa West 11.3 km/h 19.3 km/h 86 % 0.0 mm
15:17 2.4 °C 0.6 °C 1021.6 hPa West 12.9 km/h 22.5 km/h 88 % 0.0 mm
15:22 2.4 °C 0.6 °C 1021.6 hPa West 6.4 km/h 22.5 km/h 88 % 0.0 mm
15:27 2.3 °C 0.7 °C 1021.6 hPa WNW 6.4 km/h 22.5 km/h 89 % 0.0 mm
15:32 2.3 °C 0.7 °C 1021.6 hPa West 12.9 km/h 20.9 km/h 89 % 0.0 mm
15:37 2.2 °C 0.7 °C 1021.6 hPa WSW 16.1 km/h 24.1 km/h 90 % 0.0 mm
15:42 2.2 °C 0.7 °C 1021.6 hPa WNW 9.7 km/h 24.1 km/h 90 % 0.0 mm
15:47 2.1 °C 0.6 °C 1021.6 hPa WNW 20.9 km/h 24.1 km/h 90 % 0.0 mm
15:52 2.0 °C 0.7 °C 1021.6 hPa West 9.7 km/h 24.1 km/h 91 % 0.0 mm
15:57 2.1 °C 0.6 °C 1021.6 hPa WNW 8.0 km/h 24.1 km/h 90 % 0.0 mm
16:02 2.0 °C 0.7 °C 1021.6 hPa West 11.3 km/h 24.1 km/h 91 % 0.0 mm
16:07 1.9 °C 0.4 °C 1021.6 hPa WNW 9.7 km/h 24.1 km/h 90 % 0.0 mm
16:12 1.9 °C 0.4 °C 1021.6 hPa West 8.0 km/h 24.1 km/h 90 % 0.0 mm
16:17 2.0 °C 0.4 °C 1021.9 hPa West 9.7 km/h 24.1 km/h 89 % 0.0 mm
16:22 1.9 °C 0.4 °C 1021.9 hPa WSW 11.3 km/h 17.7 km/h 90 % 0.0 mm
16:32 2.1 °C 0.5 °C 1021.9 hPa WNW 8.0 km/h 20.9 km/h 89 % 0.0 mm
16:37 2.1 °C 0.6 °C 1021.9 hPa West 12.9 km/h 20.9 km/h 90 % 0.0 mm
16:42 2.2 °C 0.6 °C 1021.9 hPa WSW 3.2 km/h 17.7 km/h 89 % 0.0 mm
16:47 2.3 °C 0.7 °C 1021.9 hPa WNW 4.8 km/h 16.1 km/h 89 % 0.0 mm
16:52 2.3 °C 0.7 °C 1021.9 hPa NW 8.0 km/h 16.1 km/h 89 % 0.0 mm
16:57 2.4 °C 0.8 °C 1021.9 hPa WNW 8.0 km/h 12.9 km/h 89 % 0.0 mm
17:02 2.4 °C 0.9 °C 1021.9 hPa NNW 4.8 km/h 14.5 km/h 90 % 0.0 mm
17:07 2.4 °C 0.9 °C 1021.9 hPa West 1.6 km/h 14.5 km/h 90 % 0.0 mm
17:12 2.3 °C 0.8 °C 1022.2 hPa NW 11.3 km/h 14.5 km/h 90 % 0.0 mm
17:17 2.1 °C 0.8 °C 1021.9 hPa WNW 3.2 km/h 17.7 km/h 91 % 0.3 mm
17:22 2.1 °C 0.9 °C 1021.9 hPa WNW 4.8 km/h 17.7 km/h 92 % 0.5 mm
17:27 2.1 °C 0.9 °C 1021.9 hPa WSW 1.6 km/h 12.9 km/h 92 % 0.5 mm
17:32 2.1 °C 0.9 °C 1021.9 hPa Calm   11.3 km/h 92 % 0.5 mm
17:37 2.1 °C 0.9 °C 1021.9 hPa Calm   4.8 km/h 92 % 0.5 mm
17:42 2.1 °C 0.9 °C 1022.2 hPa WNW 1.6 km/h 3.2 km/h 92 % 0.5 mm
17:52 2.2 °C 1.0 °C 1021.9 hPa WNW 3.2 km/h 9.7 km/h 92 % 0.5 mm
17:57 2.2 °C 0.9 °C 1021.9 hPa West 1.6 km/h 9.7 km/h 91 % 0.5 mm
18:02 2.3 °C 1.0 °C 1021.9 hPa West 1.6 km/h 8.0 km/h 91 % 0.5 mm
18:07 2.3 °C 1.0 °C 1021.9 hPa West 3.2 km/h 8.0 km/h 91 % 0.5 mm
18:12 2.3 °C 1.0 °C 1021.9 hPa West 3.2 km/h 6.4 km/h 91 % 0.3 mm
18:17 2.2 °C 0.9 °C 1021.9 hPa WNW 4.8 km/h 6.4 km/h 91 % 0.3 mm
18:22 2.3 °C 1.0 °C 1021.9 hPa WNW 6.4 km/h 6.4 km/h 91 % 0.0 mm
18:27 2.3 °C 1.0 °C 1021.9 hPa WNW 3.2 km/h 8.0 km/h 91 % 0.0 mm
18:32 2.3 °C 1.0 °C 1021.9 hPa West 6.4 km/h 9.7 km/h 91 % 0.0 mm
18:37 2.4 °C 1.1 °C 1021.9 hPa WNW 4.8 km/h 9.7 km/h 91 % 0.0 mm
18:42 2.4 °C 1.1 °C 1021.9 hPa WNW 4.8 km/h 16.1 km/h 91 % 0.0 mm
18:52 2.4 °C 1.1 °C 1021.9 hPa West 3.2 km/h 12.9 km/h 91 % 0.0 mm
18:57 2.5 °C 1.2 °C 1021.9 hPa WNW 1.6 km/h 12.9 km/h 91 % 0.0 mm
19:02 2.5 °C 1.2 °C 1021.9 hPa West 3.2 km/h 12.9 km/h 91 % 0.0 mm
19:07 2.5 °C 1.2 °C 1021.9 hPa WNW 1.6 km/h 11.3 km/h 91 % 0.0 mm
19:12 2.5 °C 1.2 °C 1021.9 hPa WNW 4.8 km/h 9.7 km/h 91 % 0.0 mm
19:17 2.6 °C 1.3 °C 1021.9 hPa WNW 1.6 km/h 9.7 km/h 91 % 0.0 mm
19:22 2.6 °C 1.3 °C 1021.9 hPa WNW 4.8 km/h 8.0 km/h 91 % 0.0 mm
19:27 2.6 °C 1.3 °C 1021.9 hPa WNW 1.6 km/h 9.7 km/h 91 % 0.0 mm
19:32 2.6 °C 1.3 °C 1021.6 hPa West 3.2 km/h 9.7 km/h 91 % 0.0 mm
19:37 2.7 °C 1.2 °C 1021.6 hPa West 3.2 km/h 9.7 km/h 90 % 0.0 mm
19:47 2.9 °C 1.4 °C 1021.6 hPa WNW 6.4 km/h 11.3 km/h 90 % 0.0 mm
19:52 2.9 °C 1.3 °C 1021.6 hPa West 8.0 km/h 14.5 km/h 89 % 0.0 mm
19:57 3.0 °C 1.4 °C 1021.6 hPa West 1.6 km/h 14.5 km/h 89 % 0.0 mm
20:02 2.9 °C 1.3 °C 1021.6 hPa Calm   14.5 km/h 89 % 0.0 mm
20:07 2.9 °C 1.3 °C 1021.6 hPa West 4.8 km/h 14.5 km/h 89 % 0.0 mm
20:12 2.8 °C 1.3 °C 1021.6 hPa WNW 6.4 km/h 8.0 km/h 90 % 0.0 mm
20:17 2.8 °C 1.3 °C 1021.6 hPa West 4.8 km/h 11.3 km/h 90 % 0.0 mm
20:22 2.8 °C 1.3 °C 1021.6 hPa WSW 1.6 km/h 11.3 km/h 90 % 0.0 mm
20:27 2.9 °C 1.4 °C 1021.6 hPa WSW 1.6 km/h 11.3 km/h 90 % 0.0 mm
20:32 2.9 °C 1.3 °C 1021.6 hPa WNW 3.2 km/h 11.3 km/h 89 % 0.0 mm
20:37 2.9 °C 1.3 °C 1021.6 hPa WSW 1.6 km/h 11.3 km/h 89 % 0.0 mm
20:42 2.9 °C 1.4 °C 1021.6 hPa WNW 3.2 km/h 9.7 km/h 90 % 0.0 mm
20:47 3.0 °C 1.4 °C 1021.6 hPa SW 4.8 km/h 9.7 km/h 89 % 0.0 mm
20:52 3.0 °C 1.5 °C 1021.6 hPa West 9.7 km/h 11.3 km/h 90 % 0.0 mm
20:57 3.0 °C 1.5 °C 1021.6 hPa West 9.7 km/h 12.9 km/h 90 % 0.0 mm
21:02 3.0 °C 1.5 °C 1021.6 hPa NW 3.2 km/h 14.5 km/h 90 % 0.3 mm
21:07 2.9 °C 1.4 °C 1021.6 hPa WNW 12.9 km/h 14.5 km/h 90 % 0.3 mm
21:12 2.9 °C 1.4 °C 1021.6 hPa NW 4.8 km/h 17.7 km/h 90 % 0.3 mm
21:17 2.8 °C 1.3 °C 1021.6 hPa WNW 12.9 km/h 17.7 km/h 90 % 0.3 mm
21:22 2.8 °C 1.3 °C 1021.6 hPa WNW 4.8 km/h 17.7 km/h 90 % 0.3 mm
21:27 2.7 °C 1.4 °C 1021.6 hPa West 6.4 km/h 17.7 km/h 91 % 0.3 mm
21:32 2.7 °C 1.4 °C 1021.6 hPa NW 4.8 km/h 17.7 km/h 91 % 0.3 mm
21:37 2.6 °C 1.3 °C 1021.6 hPa NW 3.2 km/h 16.1 km/h 91 % 0.3 mm
21:42 2.5 °C 1.3 °C 1021.6 hPa NW 1.6 km/h 14.5 km/h 92 % 0.3 mm
21:52 2.4 °C 1.2 °C 1021.6 hPa WNW 1.6 km/h 9.7 km/h 92 % 0.3 mm
21:57 2.3 °C 1.1 °C 1021.6 hPa WNW 8.0 km/h 12.9 km/h 92 % 0.3 mm
22:02 2.2 °C 1.2 °C 1021.6 hPa WNW 3.2 km/h 12.9 km/h 93 % 0.3 mm
22:07 2.1 °C 1.1 °C 1021.6 hPa WNW 1.6 km/h 14.5 km/h 93 % 0.3 mm
22:12 1.9 °C 0.9 °C 1021.6 hPa NW 1.6 km/h 14.5 km/h 93 % 0.5 mm
22:17 1.8 °C 0.8 °C 1021.6 hPa NW 4.8 km/h 12.9 km/h 93 % 0.5 mm
22:22 1.7 °C 0.8 °C 1021.6 hPa NNE 3.2 km/h 9.7 km/h 94 % 0.5 mm
22:27 1.6 °C 0.7 °C 1021.6 hPa NE 1.6 km/h 8.0 km/h 94 % 0.5 mm
22:32 1.5 °C 0.6 °C 1021.6 hPa NE 4.8 km/h 9.7 km/h 94 % 0.8 mm
22:37 1.4 °C 0.5 °C 1021.6 hPa NNE 6.4 km/h 9.7 km/h 94 % 0.8 mm
22:42 1.2 °C 0.3 °C 1021.6 hPa North 6.4 km/h 12.9 km/h 94 % 0.8 mm
22:47 1.0 °C 0.1 °C 1021.6 hPa Calm   12.9 km/h 94 % 0.8 mm
22:52 0.9 °C 0.2 °C 1021.6 hPa Calm   12.9 km/h 95 % 0.8 mm
22:57 0.8 °C 0.1 °C 1021.6 hPa Calm   8.0 km/h 95 % 0.8 mm
23:02 0.8 °C 0.1 °C 1021.6 hPa Calm   3.2 km/h 95 % 0.8 mm
23:07 0.8 °C 0.1 °C 1021.6 hPa Calm   1.6 km/h 95 % 0.8 mm
23:12 0.8 °C 0.2 °C 1021.9 hPa Calm   3.2 km/h 96 % 0.5 mm
23:17 0.9 °C 0.3 °C 1021.9 hPa Calm   4.8 km/h 96 % 0.5 mm
23:22 0.9 °C 0.3 °C 1021.9 hPa Calm   4.8 km/h 96 % 0.5 mm
23:32 1.0 °C 0.4 °C 1021.9 hPa Calm   8.0 km/h 96 % 0.5 mm
23:37 1.1 °C 0.5 °C 1021.9 hPa NNE 3.2 km/h 8.0 km/h 96 % 0.5 mm
23:42 1.2 °C 0.6 °C 1021.9 hPa WNW 4.8 km/h 14.5 km/h 96 % 0.5 mm
23:47 1.2 °C 0.5 °C 1022.2 hPa NNE 3.2 km/h 14.5 km/h 95 % 0.5 mm
23:52 1.2 °C 0.5 °C 1022.2 hPa NNW 6.4 km/h 14.5 km/h 95 % 0.3 mm
23:57 1.3 °C 0.6 °C 1022.2 hPa NW 8.0 km/h 9.7 km/h 95 % 0.3 mm
Meteo18
Compliments of Weather Underground - 4 mb

Script developed by  Jim McMurry - jmcmurry@mwt.net Adapted for the template by  Wim van der Kuil - Leuven-Template.eu

You find our weather info also at:

European Weather Network

Weather Underground

Equipment we use:

Weather-station
Davis Vue

Weather-program
Meteohub

Weather-server
Raspberry PI 2 B+

Provider
1 and 1

Davis Vue

Meteohub

Raspberry PI 2 B+

1 and 1